Weather in Shepetivka

Ukraine / Khmelnitsky District     50°11′07″N   27°04′05″E
temp.,
°C
wind,
m/s
gust,
m/s
humid.,
%
clouds,
%
prec.,
mm/h
press.,
hPa
HPBL,
m
17 september, fri
fri1700:00+17s4864100 0.1 1014187
03:00+16sse4136298 0.3 1013329
06:00+16s3759100 0.1 1011188
09:00+16s246575 0.1 1010164
12:00+20wsw2465100 0.3 1008541
15:00+24ssw2454100 0.3 10071405
18:00+20sw3677100 2.2 1005161
21:00+16sw2694100 4.8 1005193
18 september, sat
sat1800:00+16s3795100 0.5 1004261
03:00+16s4895100 1.2 1002608
06:00+12w61395100 0.0 1003670
09:00+12w61393100 0.0 1005644
12:00+12w61290100 0.0 1006810
15:00+13w61287100 0.1 1007903
18:00+13w51183100 0.1 10081084
21:00+12wsw398799 0.1 1008724
19 september, sun
sun1900:00+11sw269099 0.0 1008478
03:00+11wsw2592100 0.2 1007453
06:00+8wnw3895100 2.3 1008529
09:00+6w5893100 3.2 1009862
12:00+6wsw5792100 0.3 1010979
15:00+7w5790100 0.7 10101063
18:00+7w5891100 0.4 10101135
21:00+6w5793100 1.0 1010990
20 september, mon
mon2000:00+6w5996100 0.3 1010673
03:00+7w51196100 1.2 1009828
06:00+7nw51097100 0.8 1010745
09:00+7nw61197100 1.6 1012724
12:00+7wnw61092100 0.0 1013678
15:00+7wnw61088100 0.1 1014844
18:00+6wnw51087100 0.1 1015938
21:00+5wnw5990100 0.1 1017892
21 september, tue
tue2100:00+5wnw4894100 0.1 1018832
03:00+5wnw5995100 0.1 1018785
06:00+5wnw4992100 0.0 1018761
09:00+5wnw5888100 0.1 1019918
12:00+7wnw5983100 0.1 1019927
15:00+7wnw5979100 0.3 10191107
18:00+8nw41073100 0.1 10201311
21:00+7nw277858 0.1 1020301